| time (UTC) | temp F | wind direction | speed MPH | gust MPH | rain 1hr in | rain 24hr in | rain mn in | humidity % | barometer mb |
| 20260905023039 | 71 | 86 | 0.0 | 6.0 | 0.00 | 0.00 | 0.00 | 83 | 1014.6 |
| 20260905021537 | 72 | 322 | 0.0 | 1.0 | 0.00 | 0.00 | 0.00 | 82 | 1014.5 |
| 20260905020036 | 73 | 80 | 0.0 | 0.0 | 0.00 | 0.00 | 0.00 | 81 | 1014.5 |
| 20260905014535 | 73 | 284 | 0.0 | 0.0 | 0.00 | 0.00 | 0.00 | 81 | 1014.3 |
| 20260905013033 | 74 | 360 | 0.0 | 0.0 | 0.00 | 0.00 | 0.00 | 79 | 1014.1 |
| 20260905011534 | 75 | 293 | 0.0 | 0.0 | 0.00 | 0.00 | 0.00 | 78 | 1013.7 |
| 20260905010028 | 76 | 316 | 0.0 | 2.0 | 0.00 | 0.00 | 0.00 | 76 | 1013.4 |
| 20260905004528 | 77 | 306 | 0.0 | 0.0 | 0.00 | 0.00 | 0.00 | 74 | 1013.4 |
| 20260905003026 | 79 | 4 | 0.0 | 2.0 | 0.00 | 0.00 | 0.00 | 71 | 1013.3 |
| 20260905001525 | 81 | 342 | 0.0 | 0.0 | 0.00 | 0.00 | 0.00 | 68 | 1013.1 |
| 20260905000023 | 83 | 60 | 0.0 | 0.0 | 0.00 | 0.00 | 0.00 | 66 | 1012.9 |
| 20260904234535 | 83 | 98 | 0.0 | 0.0 | 0.00 | 0.00 | 0.00 | 65 | 1012.9 |
| 20260904233021 | 83 | 349 | 0.0 | 9.0 | 0.00 | 0.00 | 0.00 | 66 | 1012.8 |
| 20260904231521 | 83 | 123 | 0.0 | 1.0 | 0.00 | 0.00 | 0.00 | 64 | 1012.7 |
| 20260904230019 | 83 | 27 | 0.0 | 6.0 | 0.00 | 0.00 | 0.00 | 65 | 1012.8 |
| 20260904224518 | 83 | 311 | 0.0 | 3.0 | 0.00 | 0.00 | 0.00 | 64 | 1012.7 |
| 20260904223019 | 83 | 302 | 0.0 | 2.0 | 0.00 | 0.00 | 0.00 | 64 | 1012.6 |
| 20260904221518 | 83 | 4 | 0.0 | 3.0 | 0.00 | 0.00 | 0.00 | 65 | 1012.4 |
| 20260904220017 | 84 | 136 | 0.0 | 2.0 | 0.00 | 0.00 | 0.00 | 64 | 1012.3 |
| 20260904214514 | 83 | 307 | 0.0 | 4.0 | 0.00 | 0.00 | 0.00 | 68 | 1012.1 |
| 20260904213013 | 82 | 76 | 0.0 | 3.0 | 0.00 | 0.00 | 0.00 | 68 | 1012.1 |
| 20260904211513 | 83 | 53 | 0.0 | 3.0 | 0.00 | 0.00 | 0.00 | 67 | 1012.3 |
| 20260904210010 | 82 | 293 | 0.0 | 3.0 | 0.00 | 0.00 | 0.00 | 68 | 1012.3 |
| 20260904204509 | 82 | 1 | 0.0 | 6.0 | 0.00 | 0.00 | 0.00 | 71 | 1012.3 |
| 20260904203011 | 82 | 295 | 0.0 | 3.0 | 0.00 | 0.00 | 0.00 | 75 | 1012.2 |
| 20260904201508 | 82 | 292 | 0.0 | 0.0 | 0.00 | 0.00 | 0.00 | 76 | 1012.2 |
| 20260904200006 | 82 | 11 | 0.0 | 0.0 | 0.00 | 0.00 | 0.00 | 76 | 1012.2 |
| 20260904194501 | 80 | 79 | 0.0 | 3.0 | 0.00 | 0.00 | 0.00 | 78 | 1012.3 |
| 20260904193105 | 80 | 358 | 0.0 | 5.0 | 0.00 | 0.00 | 0.00 | 78 | 1012.5 |
| 20260904191603 | 79 | 331 | 0.0 | 5.0 | 0.00 | 0.00 | 0.00 | 81 | 1012.4 |
| 20260904190056 | 78 | 18 | 0.0 | 6.0 | 0.00 | 0.00 | 0.00 | 80 | 1012.6 |
| 20260904184557 | 77 | 63 | 0.0 | 0.0 | 0.00 | 0.01 | 0.00 | 81 | 1012.6 |
| 20260904183049 | 75 | 7 | 0.0 | 0.0 | 0.00 | 0.01 | 0.00 | 85 | 1012.6 |
| 20260904181549 | 75 | 301 | 0.0 | 0.0 | 0.00 | 0.01 | 0.00 | 85 | 1012.8 |
| 20260904180046 | 75 | 3 | 0.0 | 0.0 | 0.00 | 0.01 | 0.00 | 84 | 1012.6 |
| 20260904174546 | 74 | 115 | 0.0 | 0.0 | 0.00 | 0.01 | 0.00 | 88 | 1012.6 |
| 20260904173043 | 73 | 327 | 0.0 | 0.0 | 0.00 | 0.01 | 0.00 | 89 | 1012.6 |
| 20260904171550 | 74 | 330 | 0.0 | 3.0 | 0.00 | 0.01 | 0.00 | 89 | 1012.3 |
| 20260904170043 | 74 | 295 | 0.0 | 0.0 | 0.00 | 0.01 | 0.00 | 89 | 1012.4 |
| 20260904164540 | 74 | 69 | 0.0 | 3.0 | 0.00 | 0.01 | 0.00 | 90 | 1012.3 |
| 20260904163042 | 74 | 282 | 0.0 | 0.0 | 0.00 | 0.01 | 0.00 | 90 | 1012.2 |
| 20260904161537 | 75 | 306 | 0.0 | 1.0 | 0.00 | 0.01 | 0.00 | 89 | 1012.0 |
| 20260904160047 | 76 | 71 | 0.0 | 5.0 | 0.00 | 0.01 | 0.00 | 89 | 1011.8 |
| 20260904154536 | 75 | 86 | 0.0 | 0.0 | 0.00 | 0.01 | 0.00 | 90 | 1011.7 |
| 20260904153031 | 74 | 71 | 0.0 | 0.0 | 0.00 | 0.01 | 0.00 | 92 | 1011.6 |
| 20260904151529 | 73 | 77 | 0.0 | 0.0 | 0.00 | 0.01 | 0.00 | 93 | 1011.4 |
| 20260904150040 | 73 | 90 | 0.0 | 0.0 | 0.00 | 0.01 | 0.00 | 95 | 1011.1 |
| 20260904144525 | 72 | 70 | 0.0 | 0.0 | 0.00 | 0.01 | 0.00 | 95 | 1010.8 |
| 20260904143025 | 72 | 84 | 0.0 | 0.0 | 0.00 | 0.01 | 0.00 | 95 | 1010.6 |
| 20260904141529 | 72 | 118 | 0.0 | 1.0 | 0.00 | 0.01 | 0.00 | 95 | 1010.7 |
| 20260904140028 | 72 | 69 | 0.0 | 0.0 | 0.00 | 0.01 | 0.00 | 95 | 1010.7 |
| 20260904134523 | 72 | 87 | 0.0 | 0.0 | 0.00 | 0.01 | 0.00 | 95 | 1010.6 |
| 20260904133023 | 72 | 56 | 0.0 | 0.0 | 0.00 | 0.01 | 0.00 | 96 | 1010.9 |
| 20260904131521 | 72 | 64 | 0.0 | 0.0 | 0.00 | 0.01 | 0.00 | 96 | 1010.7 |
| 20260904130033 | 72 | 82 | 0.0 | 0.0 | 0.00 | 0.01 | 0.00 | 96 | 1010.5 |
| 20260904124518 | 72 | 96 | 0.0 | 0.0 | 0.00 | 0.01 | 0.00 | 96 | 1010.3 |
| 20260904123016 | 71 | 90 | 0.0 | 0.0 | 0.00 | 0.01 | 0.00 | 96 | 1010.0 |
| 20260904121516 | 71 | 72 | 0.0 | 0.0 | 0.00 | 0.01 | 0.00 | 96 | 1010.0 |
| 20260904120016 | 71 | 101 | 0.0 | 0.0 | 0.00 | 0.01 | 0.00 | 96 | 1009.8 |
| 20260904114516 | 71 | 91 | 0.0 | 0.0 | 0.00 | 0.01 | 0.00 | 96 | 1009.8 |
| 20260904113013 | 71 | 85 | 0.0 | 0.0 | 0.00 | 0.01 | 0.00 | 96 | 1009.5 |
| 20260904111524 | 71 | 18 | 0.0 | 0.0 | 0.00 | 0.01 | 0.00 | 96 | 1009.6 |
| 20260904110010 | 71 | 49 | 0.0 | 0.0 | 0.00 | 0.01 | 0.00 | 96 | 1009.6 |
| 20260904104511 | 72 | 29 | 0.0 | 0.0 | 0.00 | 0.01 | 0.00 | 96 | 1009.6 |
| 20260904103015 | 71 | 100 | 0.0 | 0.0 | 0.00 | 0.01 | 0.00 | 96 | 1009.7 |
| 20260904101509 | 72 | 90 | 0.0 | 0.0 | 0.00 | 0.01 | 0.00 | 96 | 1009.5 |
| 20260904100009 | 72 | 98 | 0.0 | 0.0 | 0.00 | 0.01 | 0.00 | 96 | 1009.6 |
| 20260904094507 | 72 | 121 | 0.0 | 0.0 | 0.00 | 0.01 | 0.00 | 96 | 1009.6 |
| 20260904093007 | 71 | 64 | 0.0 | 0.0 | 0.00 | 0.01 | 0.00 | 95 | 1009.6 |
| 20260904091506 | 71 | 330 | 0.0 | 0.0 | 0.00 | 0.01 | 0.00 | 95 | 1009.9 |
| 20260904090004 | 72 | 105 | 0.0 | 0.0 | 0.00 | 0.01 | 0.00 | 95 | 1009.3 |
| 20260904084501 | 72 | 108 | 0.0 | 0.0 | 0.00 | 0.01 | 0.00 | 95 | 1008.9 |
| 20260904083101 | 72 | 128 | 0.0 | 0.0 | 0.00 | 0.01 | 0.00 | 95 | 1008.9 |
| 20260904081559 | 72 | 115 | 0.0 | 0.0 | 0.00 | 0.01 | 0.00 | 94 | 1008.9 |
| 20260904080058 | 72 | 93 | 0.0 | 0.0 | 0.00 | 0.01 | 0.00 | 94 | 1009.0 |
| 20260904074610 | 72 | 140 | 0.0 | 0.0 | 0.00 | 0.01 | 0.00 | 94 | 1008.9 |
| 20260904073100 | 73 | 140 | 0.0 | 0.0 | 0.00 | 0.01 | 0.00 | 93 | 1008.8 |
| 20260904071556 | 73 | 148 | 0.0 | 0.0 | 0.00 | 0.01 | 0.00 | 93 | 1008.9 |
| 20260904070053 | 73 | 174 | 0.0 | 0.0 | 0.00 | 0.01 | 0.00 | 92 | 1008.9 |
| 20260904064554 | 73 | 115 | 0.0 | 0.0 | 0.00 | 0.01 | 0.00 | 92 | 1009.0 |
| 20260904063101 | 73 | 98 | 0.0 | 0.0 | 0.00 | 0.01 | 0.00 | 91 | 1009.1 |
| 20260904061549 | 74 | 95 | 0.0 | 0.0 | 0.00 | 0.01 | 0.00 | 91 | 1009.2 |
| 20260904060048 | 74 | 83 | 0.0 | 0.0 | 0.00 | 0.01 | 0.00 | 91 | 1009.1 |
| 20260904054547 | 74 | 93 | 0.0 | 0.0 | 0.00 | 0.01 | 0.00 | 90 | 1009.2 |
| 20260904053048 | 74 | 70 | 0.0 | 0.0 | 0.00 | 0.01 | 0.00 | 90 | 1009.1 |
| 20260904051557 | 74 | 80 | 0.0 | 0.0 | 0.00 | 0.01 | 0.00 | 89 | 1009.2 |
| 20260904050041 | 75 | 86 | 0.0 | 0.0 | 0.00 | 0.01 | 0.01 | 88 | 1009.2 |
| 20260904044541 | 75 | 98 | 0.0 | 0.0 | 0.00 | 0.01 | 0.01 | 88 | 1009.0 |
| 20260904043040 | 75 | 88 | 0.0 | 0.0 | 0.00 | 0.01 | 0.01 | 87 | 1009.0 |
| 20260904041542 | 75 | 96 | 0.0 | 0.0 | 0.00 | 0.01 | 0.01 | 86 | 1009.0 |
| 20260904040039 | 76 | 95 | 0.0 | 0.0 | 0.00 | 0.01 | 0.01 | 84 | 1008.7 |
| 20260904034538 | 77 | 91 | 0.0 | 0.0 | 0.00 | 0.01 | 0.01 | 83 | 1008.7 |
| 20260904033038 | 77 | 89 | 0.0 | 0.0 | 0.00 | 0.01 | 0.01 | 83 | 1008.8 |
| 20260904031537 | 77 | 152 | 0.0 | 0.0 | 0.00 | 0.01 | 0.01 | 81 | 1008.7 |
| 20260904030037 | 78 | 78 | 0.0 | 0.0 | 0.00 | 0.01 | 0.01 | 80 | 1008.8 |
| 20260904024536 | 78 | 98 | 0.0 | 0.0 | 0.00 | 0.01 | 0.01 | 79 | 1008.7 |